FW4331 Weather Reports


Display with metric or nautical units.
time (UTC)temp
F
wind
direction
speed
MPH
gust
MPH
rain 1hr
in
rain 24hr
in
rain mn
in
humidity
%
barometer
mb
20221126231027 52 249 0.0 0.0 0.00 0.00 0.00 32 1016.2
20221126230025 54 121 0.0 0.0 0.00 0.00 0.00 28 1016.2
20221126225524 54 112 0.0 0.0 0.00 0.00 0.00 28 1016.1
20221126225038 54 112 0.0 0.0 0.00 0.00 0.00 28 1016.1
20221126224553 53 112 0.0 0.0 0.00 0.00 0.00 29 1016.2
20221126224020 54 110 0.0 0.0 0.00 0.00 0.00 29 1016.1
20221126223618 54 127 0.0 0.0 0.00 0.00 0.00 29 1016.1
20221126223017 55 137 0.0 0.0 0.00 0.00 0.00 27 1016.2
20221126222519 54 138 0.0 0.0 0.00 0.00 0.00 27 1016.4
20221126222015 55 138 0.0 0.0 0.00 0.00 0.00 27 1016.5
20221126221543 55 138 0.0 0.0 0.00 0.00 0.00 26 1016.4
20221126221013 56 138 0.0 0.0 0.00 0.00 0.00 25 1016.5
20221126220511 57 138 0.0 0.0 0.00 0.00 0.00 23 1016.3
20221126220013 57 138 0.0 0.0 0.00 0.00 0.00 23 1016.4
20221126215508 58 138 0.0 0.0 0.00 0.00 0.00 24 1016.4
20221126215007 58 138 0.0 0.0 0.00 0.00 0.00 23 1016.4
20221126214506 59 138 0.0 0.0 0.00 0.00 0.00 22 1016.5
20221126214107 59 138 0.0 0.0 0.00 0.00 0.00 22 1016.5
20221126213502 60 138 0.0 0.0 0.00 0.00 0.00 22 1016.4
20221126213032 61 138 0.0 0.0 0.00 0.00 0.00 20 1016.3
20221126212558 61 224 0.0 0.0 0.00 0.00 0.00 20 1016.6
20221126212058 61 246 0.0 1.0 0.00 0.00 0.00 21 1016.7
20221126211600 61 247 0.0 3.0 0.00 0.00 0.00 20 1016.7
20221126211526 61 247 0.0 3.0 0.00 0.00 0.00 20 1016.7
20221126211055 61 240 0.0 3.0 0.00 0.00 0.00 20 1016.6
20221126210155 61 243 3.0 5.0 0.00 0.00 0.00 19 1016.7
20221126205107 62 243 1.0 4.0 0.00 0.00 0.00 20 1016.5
20221126204532 61 265 1.0 8.0 0.00 0.00 0.00 21 1016.5
20221126204021 61 251 2.0 8.0 0.00 0.00 0.00 21 1016.5
20221126203523 61 250 3.0 7.0 0.00 0.00 0.00 20 1016.6
20221126203019 61 270 3.0 8.0 0.00 0.00 0.00 20 1016.6
20221126202519 61 236 4.0 8.0 0.00 0.00 0.00 20 1016.8
20221126202017 61 252 3.0 7.0 0.00 0.00 0.00 20 1016.9
20221126201516 62 243 4.0 7.0 0.00 0.00 0.00 19 1016.9
20221126201134 62 250 3.0 7.0 0.00 0.00 0.00 19 1016.9
20221126200512 62 271 4.0 9.0 0.00 0.00 0.00 19 1017.0
20221126200016 62 281 4.0 9.0 0.00 0.00 0.00 20 1016.8
20221126195509 62 279 3.0 7.0 0.00 0.00 0.00 20 1017.0
20221126195011 62 262 3.0 7.0 0.00 0.00 0.00 20 1016.9
20221126194136 62 236 3.0 6.0 0.00 0.00 0.00 19 1016.8
20221126193503 62 290 2.0 8.0 0.00 0.00 0.00 20 1016.7
20221126193002 61 184 4.0 8.0 0.00 0.00 0.00 20 1016.8
20221126192659 61 231 3.0 9.0 0.00 0.00 0.00 22 1016.9
20221126192058 61 251 5.0 9.0 0.00 0.00 0.00 21 1017.1
20221126191529 61 260 3.0 8.0 0.00 0.00 0.00 22 1017.2
20221126191124 60 248 5.0 8.0 0.00 0.00 0.00 21 1017.4
20221126190551 61 218 3.0 8.0 0.00 0.00 0.00 21 1017.3
20221126190021 61 259 2.0 9.0 0.00 0.00 0.00 21 1017.4
20221126185552 60 241 3.0 9.0 0.00 0.00 0.00 22 1017.5
20221126185046 60 264 4.0 9.0 0.00 0.00 0.00 21 1017.5
20221126185019 60 255 4.0 9.0 0.00 0.00 0.00 21 1017.4
20221126184544 60 281 4.0 8.0 0.00 0.00 0.00 22 1017.4
20221126184043 60 234 4.0 8.0 0.00 0.00 0.00 21 1017.5
20221126183542 60 253 2.0 7.0 0.00 0.00 0.00 21 1017.4
20221126183511 60 258 3.0 7.0 0.00 0.00 0.00 21 1017.5
20221126183041 59 257 4.0 7.0 0.00 0.00 0.00 21 1017.5
20221126183011 59 257 4.0 7.0 0.00 0.00 0.00 21 1017.4
20221126182539 59 285 4.0 7.0 0.00 0.00 0.00 22 1017.5
20221126182508 59 297 3.0 7.0 0.00 0.00 0.00 22 1017.6
20221126182108 59 247 3.0 7.0 0.00 0.00 0.00 22 1017.7
20221126181543 59 254 3.0 7.0 0.00 0.00 0.00 23 1017.7
20221126181038 58 245 3.0 5.0 0.00 0.00 0.00 22 1017.7
20221126180532 58 242 2.0 4.0 0.00 0.00 0.00 22 1017.7
20221126180503 58 231 2.0 4.0 0.00 0.00 0.00 22 1017.7
20221126180101 58 222 1.0 7.0 0.00 0.00 0.00 22 1017.8
20221126175529 58 8 2.0 7.0 0.00 0.00 0.00 23 1017.9
20221126175058 58 235 1.0 7.0 0.00 0.00 0.00 23 1018.0
20221126174024 58 296 1.0 5.0 0.00 0.00 0.00 24 1018.1
20221126173522 57 302 2.0 6.0 0.00 0.00 0.00 25 1018.1
20221126173021 57 217 2.0 6.0 0.00 0.00 0.00 25 1018.2
20221126172522 57 278 2.0 9.0 0.00 0.00 0.00 25 1018.3
20221126172047 56 244 4.0 9.0 0.00 0.00 0.00 25 1018.4
20221126171512 56 250 1.0 6.0 0.00 0.00 0.00 28 1018.5
20221126171006 56 326 3.0 8.0 0.00 0.00 0.00 28 1018.7
20221126170506 55 269 3.0 8.0 0.00 0.00 0.00 27 1018.9
20221126170107 55 284 4.0 8.0 0.00 0.00 0.00 27 1019.0
20221126165604 55 239 4.0 10.0 0.00 0.00 0.00 28 1019.0
20221126165001 54 220 4.0 13.0 0.00 0.00 0.00 28 1019.0
20221126164600 54 248 4.0 13.0 0.00 0.00 0.00 29 1019.2
20221126164057 54 226 4.0 9.0 0.00 0.00 0.00 29 1019.3
20221126163557 54 250 4.0 10.0 0.00 0.00 0.00 31 1019.3
20221126163154 54 244 4.0 10.0 0.00 0.00 0.00 31 1019.5
20221126162550 54 232 4.0 9.0 0.00 0.00 0.00 34 1019.7
20221126162048 53 240 3.0 9.0 0.00 0.00 0.00 35 1019.8
20221126161547 53 222 5.0 9.0 0.00 0.00 0.00 35 1019.8
20221126161045 53 209 4.0 8.0 0.00 0.00 0.00 36 1019.9
20221126160543 52 250 4.0 8.0 0.00 0.00 0.00 36 1019.8
20221126160046 52 194 2.0 8.0 0.00 0.00 0.00 37 1019.9
20221126160011 52 201 2.0 8.0 0.00 0.00 0.00 37 1019.9
20221126155539 52 193 4.0 8.0 0.00 0.00 0.00 38 1020.0
20221126155038 51 227 4.0 7.0 0.00 0.00 0.00 38 1020.0
20221126154637 51 200 4.0 8.0 0.00 0.00 0.00 37 1020.1
20221126154134 51 252 4.0 8.0 0.00 0.00 0.00 38 1020.0
20221126153534 51 250 3.0 7.0 0.00 0.00 0.00 40 1020.0
20221126153132 51 202 2.0 7.0 0.00 0.00 0.00 39 1020.1
20221126152530 50 190 3.0 7.0 0.00 0.00 0.00 39 1020.1
20221126152059 51 219 4.0 7.0 0.00 0.00 0.00 40 1020.3
20221126151558 51 200 3.0 6.0 0.00 0.00 0.00 40 1020.2
20221126151057 50 221 1.0 4.0 0.00 0.00 0.00 40 1020.3
20221126150558 50 238 1.0 4.0 0.00 0.00 0.00 39 1020.4
20221126150122 50 179 2.0 5.0 0.00 0.00 0.00 41 1020.3
20221126145552 50 186 3.0 6.0 0.00 0.00 0.00 41 1020.4
20221126145009 49 134 2.0 5.0 0.00 0.00 0.00 44 1020.3
20221126144517 49 195 1.0 3.0 0.00 0.00 0.00 41 1020.3
20221126144014 48 266 0.0 1.0 0.00 0.00 0.00 41 1020.3
20221126143542 48 335 0.0 4.0 0.00 0.00 0.00 42 1020.1
20221126143011 47 243 1.0 4.0 0.00 0.00 0.00 43 1020.1
20221126142509 47 244 2.0 5.0 0.00 0.00 0.00 45 1020.0
20221126142009 47 241 2.0 5.0 0.00 0.00 0.00 46 1020.1
20221126141609 46 244 2.0 5.0 0.00 0.00 0.00 48 1020.1
20221126141110 45 229 2.0 5.0 0.00 0.00 0.00 50 1020.1
20221126140539 45 253 2.0 5.0 0.00 0.00 0.00 52 1020.0
20221126140038 44 300 2.0 3.0 0.00 0.03 0.00 54 1019.9
20221126140007 44 252 2.0 3.0 0.00 0.03 0.00 54 1020.0
20221126135535 43 260 2.0 3.0 0.00 0.03 0.00 55 1019.9
20221126135034 43 260 2.0 3.0 0.00 0.03 0.00 57 1019.9
20221126134533 43 252 0.0 0.0 0.00 0.03 0.00 58 1019.8
20221126134505 43 249 0.0 0.0 0.00 0.03 0.00 58 1019.8
20221126134033 42 253 0.0 0.0 0.00 0.03 0.00 61 1019.8
20221126133604 42 250 0.0 0.0 0.00 0.03 0.00 61 1019.7
20221126133027 41 245 0.0 0.0 0.00 0.03 0.00 60 1019.7
20221126132600 41 151 0.0 0.0 0.00 0.03 0.00 61 1019.7
20221126132024 40 150 0.0 0.0 0.00 0.03 0.00 60 1019.7
20221126131535 40 150 0.0 0.0 0.00 0.03 0.00 60 1019.6
20221126131022 40 150 0.0 0.0 0.00 0.03 0.00 57 1019.7
20221126130622 40 150 0.0 0.0 0.00 0.03 0.00 57 1019.7
20221126130021 39 155 0.0 0.0 0.00 0.04 0.00 58 1019.7
20221126125518 39 155 0.0 0.0 0.00 0.04 0.00 59 1019.7
20221126125136 39 155 0.0 0.0 0.00 0.04 0.00 61 1019.8
20221126124548 38 154 0.0 0.0 0.00 0.04 0.00 59 1019.7
20221126124013 38 154 0.0 0.0 0.00 0.04 0.00 59 1019.8
20221126123510 38 154 0.0 0.0 0.00 0.04 0.00 59 1019.6
20221126123009 38 154 0.0 0.0 0.00 0.04 0.00 56 1019.8
20221126122510 39 153 0.0 0.0 0.00 0.04 0.00 55 1019.7
20221126122005 40 151 0.0 0.0 0.00 0.04 0.00 55 1019.6
20221126121509 40 218 0.0 0.0 0.00 0.04 0.00 55 1019.5
20221126121158 40 218 0.0 0.0 0.00 0.04 0.00 55 1019.6
20221126120626 39 218 0.0 0.0 0.00 0.04 0.00 56 1019.5
20221126120053 39 218 0.0 0.0 0.00 0.07 0.00 56 1019.5
20221126115552 39 218 0.0 0.0 0.00 0.07 0.00 56 1019.5
20221126115112 39 218 0.0 0.0 0.00 0.07 0.00 56 1019.4
20221126114604 39 212 0.0 0.0 0.00 0.07 0.00 57 1019.5
20221126114029 39 204 0.0 0.0 0.00 0.07 0.00 56 1019.4
20221126113528 39 205 0.0 0.0 0.00 0.07 0.00 56 1019.3
20221126113026 40 163 0.0 0.0 0.00 0.07 0.00 55 1019.3
20221126112524 39 163 0.0 0.0 0.00 0.07 0.00 56 1019.3
20221126112022 39 164 0.0 0.0 0.00 0.07 0.00 56 1019.1
20221126111521 40 164 0.0 0.0 0.00 0.07 0.00 55 1019.1
20221126111017 41 156 0.0 0.0 0.00 0.07 0.00 53 1019.1
20221126110520 42 310 0.0 0.0 0.00 0.07 0.00 52 1019.0
20221126110016 42 310 0.0 1.0 0.00 0.13 0.00 52 1019.0
20221126105544 42 310 0.0 3.0 0.00 0.13 0.00 52 1018.9
20221126105114 42 310 0.0 3.0 0.00 0.13 0.00 52 1018.8
20221126104512 42 3 0.0 2.0 0.00 0.13 0.00 52 1018.9
20221126104114 42 324 0.0 2.0 0.00 0.13 0.00 52 1018.9
20221126103509 42 283 0.0 1.0 0.00 0.13 0.00 52 1018.9
20221126103046 41 265 0.0 2.0 0.00 0.13 0.00 54 1018.8
20221126102535 41 238 0.0 2.0 0.00 0.13 0.00 54 1018.7
20221126102035 41 214 0.0 1.0 0.00 0.13 0.00 53 1018.6
20221126101536 41 219 0.0 3.0 0.00 0.13 0.00 53 1018.6
20221126101031 42 159 1.0 2.0 0.00 0.13 0.00 52 1018.6
20221126101001 42 158 1.0 2.0 0.00 0.13 0.00 52 1018.6
20221126100630 42 176 0.0 2.0 0.00 0.13 0.00 52 1018.6
20221126100028 42 150 1.0 2.0 0.00 0.13 0.00 52 1018.6
20221126095527 42 154 0.0 2.0 0.00 0.13 0.00 52 1018.4
20221126095027 42 154 0.0 4.0 0.00 0.13 0.00 51 1018.5
20221126094625 43 146 2.0 4.0 0.00 0.13 0.00 51 1018.5
20221126094028 43 131 2.0 3.0 0.00 0.13 0.00 49 1018.4
20221126093522 44 41 0.0 4.0 0.00 0.13 0.00 49 1018.4
20221126093054 43 6 0.0 4.0 0.00 0.13 0.00 49 1018.3
20221126092539 44 282 0.0 4.0 0.00 0.13 0.00 49 1018.3
20221126092017 43 336 1.0 4.0 0.00 0.13 0.00 50 1018.4
20221126091518 43 306 0.0 4.0 0.00 0.13 0.00 50 1018.4
20221126091046 43 334 1.0 8.0 0.00 0.13 0.00 50 1018.4
20221126090541 43 11 4.0 8.0 0.00 0.13 0.00 50 1018.2
20221126090051 42 311 1.0 5.0 0.00 0.13 0.00 51 1018.3
20221126085507 43 15 1.0 6.0 0.00 0.13 0.00 50 1018.3
20221126085036 42 324 0.0 3.0 0.00 0.13 0.00 51 1018.4
20221126084536 43 221 0.0 2.0 0.00 0.13 0.00 51 1018.4
20221126084109 43 136 0.0 2.0 0.00 0.13 0.00 51 1018.5
20221126083507 43 143 0.0 2.0 0.00 0.13 0.00 51 1018.4
20221126083004 43 146 0.0 3.0 0.00 0.13 0.00 50 1018.5
20221126082532 43 103 1.0 3.0 0.00 0.13 0.00 50 1018.3
20221126082001 42 101 0.0 3.0 0.00 0.13 0.00 51 1018.3
20221126081529 43 146 0.0 3.0 0.00 0.13 0.00 50 1018.3
20221126081058 43 156 2.0 3.0 0.00 0.13 0.00 50 1018.3
20221126080658 43 154 2.0 3.0 0.00 0.13 0.00 51 1018.3
20221126080055 43 159 2.0 3.0 0.00 0.13 0.00 51 1018.2
20221126075553 43 142 1.0 2.0 0.00 0.13 0.00 50 1018.3
20221126075051 44 117 0.0 3.0 0.00 0.13 0.00 48 1018.3
20221126074652 44 117 0.0 3.0 0.00 0.13 0.00 48 1018.3
20221126074044 44 76 1.0 3.0 0.00 0.13 0.00 49 1018.2
20221126073612 44 152 1.0 6.0 0.00 0.13 0.00 49 1018.1
20221126073047 44 140 4.0 6.0 0.00 0.13 0.00 48 1018.1
20221126073011 44 155 3.0 5.0 0.00 0.13 0.00 48 1018.2
20221126072539 44 188 2.0 6.0 0.00 0.13 0.00 48 1018.1
20221126072036 44 155 2.0 5.0 0.00 0.13 0.00 47 1017.9
20221126071635 44 215 1.0 7.0 0.00 0.13 0.00 47 1018.2
20221126070513 44 131 1.0 6.0 0.00 0.13 0.00 47 1017.8
20221126070110 45 132 0.0 2.0 0.00 0.13 0.00 47 1017.7
20221126065506 45 38 0.0 5.0 0.00 0.13 0.00 46 1017.6
20221126065006 46 23 2.0 6.0 0.00 0.13 0.00 46 1017.4
20221126064504 46 314 2.0 7.0 0.00 0.13 0.00 45 1017.5
20221126064001 46 10 3.0 8.0 0.00 0.13 0.00 45 1017.3
20221126063601 46 326 3.0 8.0 0.00 0.13 0.00 45 1017.3
20221126063131 46 31 2.0 8.0 0.00 0.13 0.00 45 1017.3
20221126062600 46 19 3.0 8.0 0.00 0.13 0.00 45 1017.3
20221126062527 46 319 3.0 8.0 0.00 0.13 0.00 45 1017.3
20221126061528 46 38 4.0 8.0 0.00 0.13 0.00 45 1017.3
20221126061051 46 22 2.0 8.0 0.00 0.13 0.00 45 1017.3
20221126060547 46 328 2.0 8.0 0.00 0.13 0.00 45 1017.4
20221126060116 46 308 3.0 9.0 0.00 0.13 0.00 45 1017.4
20221126055543 46 326 3.0 9.0 0.00 0.13 0.00 45 1017.5
20221126055041 46 317 2.0 6.0 0.00 0.13 0.00 44 1017.6
20221126054539 47 314 0.0 5.0 0.00 0.13 0.00 43 1017.6
20221126054036 47 320 1.0 7.0 0.00 0.13 0.00 43 1017.5
20221126053535 47 15 3.0 7.0 0.00 0.13 0.00 43 1017.5
20221126053504 47 27 2.0 7.0 0.00 0.13 0.00 43 1017.3
20221126053033 47 321 1.0 11.0 0.00 0.13 0.00 43 1017.3
20221126052029 47 16 3.0 9.0 0.00 0.13 0.00 43 1017.2
20221126051529 47 323 3.0 9.0 0.00 0.13 0.00 43 1017.0
20221126051031 47 300 3.0 9.0 0.00 0.13 0.00 42 1017.0
20221126050520 47 337 2.0 7.0 0.00 0.13 0.00 42 1017.2
20221126050025 47 309 2.0 7.0 0.00 0.13 0.13 42 1017.1
20221126045546 48 15 3.0 10.0 0.00 0.13 0.13 41 1017.2
20221126045016 48 318 3.0 12.0 0.00 0.13 0.13 41 1017.0
20221126044519 48 347 3.0 12.0 0.00 0.13 0.13 41 1016.7
20221126044034 48 27 5.0 11.0 0.00 0.13 0.13 41 1016.7
20221126043646 48 309 2.0 13.0 0.00 0.13 0.13 41 1016.7
20221126043105 48 308 5.0 12.0 0.00 0.13 0.13 41 1016.6
20221126042544 48 312 6.0 12.0 0.00 0.13 0.13 40 1016.5
20221126042043 48 328 6.0 12.0 0.00 0.13 0.13 40 1016.5
20221126042016 48 42 6.0 12.0 0.00 0.13 0.13 40 1016.5
20221126041041 48 340 3.0 11.0 0.00 0.13 0.13 41 1016.6
20221126040037 48 19 3.0 10.0 0.00 0.13 0.13 40 1016.4
20221126035537 48 333 4.0 10.0 0.00 0.13 0.13 40 1016.4
20221126035106 48 309 3.0 9.0 0.00 0.13 0.13 40 1016.3
20221126034535 48 316 4.0 9.0 0.00 0.13 0.13 39 1016.4
20221126034106 48 309 2.0 9.0 0.00 0.13 0.13 40 1016.5
20221126033528 48 305 3.0 11.0 0.00 0.13 0.13 40 1016.4
20221126033027 48 346 2.0 7.0 0.00 0.13 0.13 40 1016.5
20221126032525 48 300 2.0 7.0 0.00 0.13 0.13 39 1016.4
20221126032054 48 312 1.0 11.0 0.00 0.13 0.13 40 1016.4
20221126031522 48 340 1.0 5.0 0.00 0.13 0.13 41 1016.2
20221126031123 48 36 2.0 5.0 0.00 0.13 0.13 40 1016.2
20221126030659 48 330 2.0 7.0 0.00 0.13 0.13 40 1016.2
20221126030055 48 335 3.0 5.0 0.00 0.13 0.13 40 1016.2
20221126025555 48 5 1.0 5.0 0.00 0.13 0.13 41 1016.2
20221126025053 48 34 2.0 11.0 0.00 0.13 0.13 40 1016.2
20221126025024 48 352 1.0 11.0 0.00 0.13 0.13 40 1016.2
20221126024559 48 21 1.0 11.0 0.00 0.13 0.13 40 1016.2
20221126024051 49 34 0.0 5.0 0.00 0.13 0.13 40 1016.2
20221126024023 49 359 0.0 6.0 0.00 0.13 0.13 40 1016.2
20221126023549 49 58 2.0 6.0 0.00 0.13 0.13 40 1016.2
20221126023051 49 30 1.0 8.0 0.00 0.13 0.13 40 1016.2
20221126022547 49 360 1.0 8.0 0.00 0.13 0.13 40 1016.1
20221126022107 49 20 2.0 9.0 0.00 0.13 0.13 39 1016.1
20221126021648 49 353 2.0 9.0 0.00 0.13 0.13 39 1016.0
20221126021044 49 6 2.0 10.0 0.00 0.13 0.13 39 1015.9
20221126020541 49 42 4.0 10.0 0.00 0.13 0.13 40 1015.9
20221126020513 49 14 3.0 8.0 0.00 0.13 0.13 40 1015.8
20221126015539 49 295 6.0 11.0 0.00 0.13 0.13 40 1015.8
20221126015039 49 25 2.0 8.0 0.00 0.13 0.13 41 1015.8
20221126014544 49 316 3.0 8.0 0.00 0.13 0.13 41 1015.7
20221126014039 49 310 2.0 7.0 0.00 0.13 0.13 42 1015.7
20221126013537 49 7 0.0 4.0 0.00 0.13 0.13 42 1015.5
20221126013506 49 7 1.0 4.0 0.00 0.13 0.13 42 1015.5
20221126013040 49 26 0.0 2.0 0.00 0.13 0.13 42 1015.5
20221126013015 49 26 0.0 2.0 0.00 0.13 0.13 42 1015.6
20221126012533 49 1 0.0 3.0 0.00 0.13 0.13 41 1015.5
20221126012135 50 323 0.0 3.0 0.00 0.13 0.13 41 1015.5
20221126011501 50 328 0.0 5.0 0.00 0.13 0.13 41 1015.4
20221126011032 50 321 0.0 4.0 0.00 0.13 0.13 40 1015.4
20221126010528 50 25 1.0 7.0 0.00 0.13 0.13 40 1015.3
20221126010035 50 335 1.0 9.0 0.00 0.13 0.13 40 1015.2
20221126005526 50 332 4.0 9.0 0.00 0.13 0.13 40 1015.1
20221126005024 50 333 2.0 8.0 0.00 0.13 0.13 40 1015.2
20221126004623 50 324 1.0 6.0 0.00 0.13 0.13 41 1015.2
20221126004026 49 335 2.0 6.0 0.00 0.13 0.13 42 1015.0
20221126003523 49 18 0.0 6.0 0.00 0.13 0.13 42 1014.8
20221126003018 49 330 2.0 6.0 0.00 0.13 0.13 42 1014.8
20221126002517 50 319 0.0 3.0 0.00 0.13 0.13 41 1014.7
20221126002016 50 329 1.0 4.0 0.00 0.13 0.13 40 1014.9
20221126001615 51 328 2.0 5.0 0.00 0.13 0.13 39 1014.9
20221126001015 51 316 1.0 5.0 0.00 0.13 0.13 39 1014.9
20221126000513 51 352 1.0 5.0 0.00 0.13 0.13 39 1014.7
20221126000017 51 331 1.0 5.0 0.00 0.13 0.13 38 1014.6
20221125235512 52 341 1.0 7.0 0.00 0.13 0.13 37 1014.5
20221125235012 52 13 3.0 10.0 0.00 0.13 0.13 37 1014.4
20221125234510 52 324 4.0 10.0 0.00 0.13 0.13 37 1014.3
20221125234121 52 335 4.0 8.0 0.00 0.13 0.13 37 1014.2
20221125233504 52 249 1.0 8.0 0.00 0.13 0.13 37 1014.2
20221125233106 52 318 3.0 8.0 0.00 0.13 0.13 36 1014.1
20221125232602 52 86 3.0 7.0 0.00 0.13 0.13 36 1014.1
20221125232101 53 318 2.0 6.0 0.00 0.13 0.13 36 1014.0
20221125231613 53 314 3.0 9.0 0.00 0.13 0.13 35 1013.9
20221125231529 53 333 3.0 9.0 0.00 0.13 0.13 35 1013.9